GFSNE_500_temp_021.txt.gz
Temp
-27 -27 -28 -28 -28 -29 -29 -29 -29 -28 -28 -27 -27 -27 -27 -26 -25 -24 -24 -24 -23 -23 -22 -22 -21 -20 -20 -20 -19 -19 -19 -18 -18 -17 -17 -16 -16 -16
-29 -29 -29 -30 -30 -30 -30 -30 -29 -28 -28 -28 -28 -28 -28 -27 -27 -26 -26 -25 -24 -24 -24 -23 -22 -22 -21 -21 -20 -20 -19 -19 -18 -18 -17 -17 -16 -16
-31 -31 -31 -31 -30 -31 -30 -30 -30 -30 -29 -28 -28 -28 -28 -28 -28 -27 -26 -25 -25 -25 -25 -25 -24 -23 -23 -22 -21 -20 -20 -19 -19 -19 -18 -18 -17 -17
-31 -31 -31 -31 -31 -31 -31 -31 -30 -30 -30 -29 -29 -29 -29 -28 -28 -27 -27 -27 -26 -26 -25 -25 -25 -25 -24 -23 -22 -21 -21 -20 -20 -19 -19 -18 -18 -17
-31 -31 -31 -31 -31 -31 -31 -30 -30 -30 -30 -30 -29 -29 -29 -29 -28 -28 -28 -27 -27 -26 -26 -26 -25 -25 -25 -24 -24 -23 -22 -21 -20 -20 -20 -19 -18 -18
-31 -31 -31 -31 -31 -31 -31 -31 -30 -30 -30 -30 -29 -29 -29 -29 -29 -28 -28 -28 -27 -27 -27 -26 -25 -25 -25 -24 -24 -24 -24 -23 -22 -21 -21 -20 -19 -19
-31 -31 -31 -31 -31 -31 -31 -31 -30 -30 -30 -30 -30 -29 -29 -29 -29 -29 -28 -28 -28 -28 -27 -27 -27 -26 -25 -25 -25 -24 -24 -24 -23 -23 -22 -21 -20 -19
-31 -31 -31 -31 -31 -31 -31 -30 -30 -30 -30 -30 -29 -29 -29 -29 -29 -28 -28 -28 -28 -27 -27 -27 -27 -27 -27 -26 -26 -25 -25 -25 -24 -24 -23 -22 -22 -21
-33 -33 -32 -32 -32 -31 -30 -30 -30 -30 -30 -30 -29 -29 -29 -29 -29 -28 -28 -28 -28 -28 -28 -27 -27 -27 -27 -27 -26 -26 -26 -26 -26 -25 -25 -24 -24 -23
-34 -34 -34 -34 -33 -32 -31 -30 -30 -30 -30 -30 -29 -29 -29 -29 -29 -29 -29 -29 -29 -29 -29 -28 -28 -27 -27 -27 -27 -26 -26 -26 -26 -25 -25 -25 -25 -25
-35 -35 -35 -35 -34 -33 -31 -30 -30 -30 -29 -29 -29 -29 -30 -30 -30 -30 -30 -29 -29 -29 -29 -29 -29 -29 -29 -28 -28 -27 -27 -26 -26 -25 -25 -25 -25 -25
-36 -35 -35 -35 -34 -33 -32 -31 -30 -30 -29 -29 -30 -30 -30 -30 -30 -30 -30 -30 -30 -30 -30 -29 -29 -28 -28 -28 -28 -28 -28 -29 -27 -26 -26 -25 -25 -25
-36 -35 -35 -34 -34 -33 -32 -31 -30 -30 -30 -30 -29 -30 -30 -30 -30 -30 -30 -30 -30 -31 -31 -30 -30 -29 -29 -28 -29 -28 -28 -28 -29 -28 -27 -26 -25 -25
-36 -35 -35 -35 -34 -33 -32 -31 -30 -30 -29 -30 -30 -30 -29 -29 -30 -30 -30 -30 -30 -30 -31 -31 -30 -30 -30 -30 -29 -29 -29 -29 -29 -30 -29 -27 -26 -25
-36 -35 -35 -34 -34 -32 -31 -30 -30 -30 -30 -29 -29 -29 -29 -29 -28 -28 -29 -29 -30 -31 -31 -31 -31 -31 -30 -30 -30 -30 -29 -29 -29 -29 -30 -29 -27 -26
-35 -34 -34 -34 -33 -32 -31 -30 -30 -30 -30 -29 -29 -29 -29 -29 -28 -28 -28 -28 -30 -31 -32 -32 -32 -31 -31 -30 -30 -30 -30 -29 -29 -29 -30 -30 -29 -27
-34 -34 -33 -33 -32 -31 -31 -30 -30 -30 -30 -30 -30 -30 -29 -29 -29 -29 -28 -28 -29 -31 -32 -33 -33 -32 -32 -31 -31 -31 -31 -30 -29 -29 -30 -30 -30 -29
-33 -33 -33 -33 -32 -32 -31 -31 -31 -30 -30 -30 -30 -30 -30 -29 -29 -29 -29 -29 -29 -30 -32 -33 -33 -33 -32 -32 -32 -31 -31 -31 -30 -29 -30 -30 -30 -30
-33 -33 -33 -33 -32 -32 -31 -31 -31 -31 -30 -30 -30 -30 -30 -29 -29 -29 -29 -29 -29 -30 -32 -33 -34 -33 -32 -32 -32 -32 -31 -31 -31 -30 -30 -30 -30 -30
-33 -33 -33 -33 -32 -32 -32 -31 -31 -31 -31 -30 -30 -30 -30 -30 -30 -30 -30 -30 -30 -30 -31 -32 -33 -34 -33 -33 -32 -32 -32 -31 -31 -30 -30 -30 -30 -30
-33 -33 -33 -32 -32 -32 -32 -31 -31 -31 -31 -31 -30 -30 -30 -30 -30 -30 -30 -30 -30 -30 -30 -31 -32 -33 -34 -33 -33 -32 -32 -32 -31 -31 -31 -30 -30 -30
-33 -33 -33 -33 -32 -32 -32 -32 -31 -31 -31 -31 -31 -31 -30 -30 -30 -30 -30 -30 -30 -30 -30 -31 -31 -32 -33 -33 -33 -33 -33 -32 -32 -32 -31 -31 -30 -30
-33 -33 -33 -33 -32 -32 -32 -32 -31 -31 -31 -31 -31 -31 -31 -31 -31 -31 -31 -31 -31 -31 -31 -31 -31 -31 -32 -32 -33 -33 -33 -33 -33 -32 -32 -32 -31 -31

GFSNE_500_temp_024.txt.gz
Temp
-28 -28 -28 -28 -29 -29 -29 -29 -29 -29 -30 -29 -28 -29 -28 -27 -27 -27 -26 -26 -24 -23 -22 -23 -23 -22 -22 -21 -20 -20 -20 -19 -19 -18 -18 -17 -17 -17
-30 -30 -30 -31 -31 -31 -31 -31 -31 -31 -30 -30 -30 -30 -29 -29 -28 -27 -27 -27 -27 -25 -24 -24 -24 -24 -23 -22 -21 -21 -20 -20 -20 -19 -19 -18 -18 -17
-31 -31 -31 -31 -31 -31 -31 -31 -31 -31 -31 -30 -30 -30 -30 -29 -29 -29 -28 -27 -27 -27 -26 -25 -25 -25 -24 -24 -23 -22 -22 -21 -21 -20 -20 -19 -19 -18
-31 -31 -31 -31 -31 -31 -31 -31 -31 -31 -31 -31 -30 -30 -30 -30 -30 -29 -29 -28 -28 -28 -28 -27 -26 -25 -26 -25 -24 -24 -23 -23 -22 -22 -21 -20 -19 -19
-31 -31 -31 -31 -31 -31 -31 -31 -31 -31 -31 -31 -30 -30 -30 -30 -30 -30 -29 -29 -29 -28 -28 -28 -27 -26 -26 -26 -26 -25 -24 -23 -23 -22 -22 -21 -20 -20
-31 -31 -31 -31 -31 -31 -31 -31 -31 -31 -31 -31 -31 -30 -30 -30 -30 -30 -29 -29 -29 -29 -28 -27 -27 -27 -27 -26 -26 -26 -25 -24 -24 -23 -23 -23 -22 -21
-32 -32 -32 -32 -32 -32 -31 -31 -31 -31 -31 -31 -31 -30 -30 -30 -30 -30 -30 -29 -29 -29 -29 -28 -28 -27 -27 -27 -26 -26 -26 -25 -25 -24 -23 -23 -23 -22
-33 -33 -34 -34 -34 -33 -32 -32 -32 -31 -31 -30 -30 -30 -30 -30 -30 -30 -29 -29 -29 -29 -29 -29 -29 -28 -27 -27 -27 -26 -26 -26 -25 -25 -24 -24 -24 -23
-34 -35 -35 -35 -35 -35 -34 -33 -32 -32 -31 -30 -30 -30 -30 -30 -30 -29 -29 -29 -29 -29 -29 -28 -28 -28 -28 -28 -28 -27 -26 -26 -26 -25 -25 -25 -24 -24
-35 -35 -35 -35 -35 -35 -34 -34 -33 -32 -31 -30 -30 -30 -30 -30 -30 -29 -29 -29 -29 -29 -29 -28 -29 -28 -28 -28 -27 -27 -27 -27 -27 -26 -25 -25 -25 -24
-34 -35 -35 -35 -35 -35 -35 -34 -33 -32 -31 -30 -30 -30 -30 -30 -30 -30 -30 -30 -30 -30 -29 -29 -29 -29 -28 -28 -28 -28 -27 -27 -27 -27 -27 -26 -26 -25
-35 -35 -35 -35 -36 -35 -35 -34 -33 -32 -31 -30 -30 -30 -30 -30 -30 -30 -30 -30 -30 -30 -30 -29 -29 -29 -29 -29 -29 -29 -29 -28 -27 -27 -27 -26 -26 -26
-36 -36 -36 -36 -35 -35 -34 -34 -33 -32 -31 -30 -30 -30 -30 -30 -30 -30 -30 -30 -30 -30 -30 -30 -30 -30 -30 -30 -29 -29 -29 -29 -29 -29 -28 -28 -27 -26
-36 -36 -36 -36 -35 -35 -34 -34 -33 -31 -31 -30 -30 -30 -30 -30 -30 -29 -29 -29 -30 -30 -30 -30 -31 -31 -31 -30 -30 -30 -29 -29 -29 -29 -29 -29 -29 -28
-35 -35 -35 -35 -34 -34 -33 -33 -32 -31 -30 -30 -30 -30 -29 -29 -29 -29 -28 -28 -28 -28 -29 -30 -31 -32 -31 -31 -31 -31 -31 -30 -29 -29 -29 -29 -28 -29
-34 -34 -34 -34 -33 -33 -32 -32 -31 -31 -30 -30 -30 -30 -30 -29 -29 -29 -28 -28 -28 -28 -28 -30 -32 -33 -33 -32 -31 -31 -31 -31 -30 -30 -29 -29 -29 -29
-34 -34 -34 -34 -33 -33 -32 -32 -31 -30 -30 -30 -30 -30 -30 -29 -29 -29 -29 -28 -28 -28 -29 -30 -32 -33 -33 -33 -32 -32 -31 -31 -31 -30 -30 -30 -29 -29
-33 -33 -34 -33 -33 -33 -32 -32 -31 -31 -30 -30 -30 -30 -30 -30 -29 -29 -29 -29 -29 -29 -28 -30 -31 -33 -33 -33 -32 -32 -31 -31 -31 -31 -30 -30 -30 -29
-33 -33 -33 -33 -33 -33 -32 -32 -31 -31 -31 -31 -30 -30 -30 -30 -30 -30 -29 -29 -29 -29 -29 -29 -31 -33 -33 -33 -32 -32 -32 -32 -32 -31 -31 -30 -30 -30
-33 -33 -33 -33 -33 -33 -32 -32 -32 -31 -31 -31 -31 -31 -30 -30 -30 -30 -30 -30 -30 -30 -30 -30 -30 -32 -33 -33 -33 -32 -32 -32 -32 -31 -31 -31 -31 -30
-33 -33 -33 -33 -33 -32 -32 -32 -32 -31 -31 -31 -31 -31 -31 -30 -30 -30 -30 -30 -30 -30 -30 -30 -30 -30 -32 -32 -33 -33 -33 -32 -32 -32 -32 -31 -31 -31
-33 -33 -33 -33 -33 -33 -32 -32 -32 -32 -31 -31 -31 -31 -31 -31 -31 -31 -31 -31 -31 -31 -31 -31 -31 -31 -31 -31 -32 -33 -33 -33 -33 -32 -32 -32 -32 -31
-33 -33 -33 -33 -33 -33 -33 -32 -32 -32 -32 -31 -31 -31 -31 -31 -31 -31 -31 -31 -31 -31 -31 -31 -31 -31 -31 -31 -31 -32 -33 -33 -33 -33 -33 -32 -32 -32

GFSNE_500_temp_027.txt.gz
Temp
-28 -29 -29 -30 -30 -30 -32 -31 -30 -30 -30 -30 -29 -29 -29 -28 -27 -27 -26 -26 -26 -25 -25 -25 -24 -24 -24 -23 -22 -21 -21 -20 -20 -19 -19 -18 -17 -17
-31 -31 -31 -31 -31 -31 -31 -32 -32 -31 -30 -31 -32 -31 -31 -30 -30 -29 -28 -28 -27 -27 -26 -26 -26 -25 -25 -25 -24 -23 -21 -21 -21 -20 -19 -19 -18 -18
-31 -31 -31 -31 -31 -31 -31 -31 -31 -32 -31 -30 -31 -31 -31 -31 -31 -31 -30 -29 -29 -28 -28 -27 -26 -27 -27 -26 -25 -24 -23 -21 -21 -21 -20 -20 -19 -19
-31 -31 -31 -31 -31 -31 -31 -31 -31 -31 -31 -31 -31 -31 -31 -31 -31 -31 -30 -30 -30 -29 -29 -28 -28 -28 -27 -27 -26 -25 -24 -23 -22 -21 -21 -20 -20 -19
-31 -31 -31 -31 -31 -32 -32 -31 -31 -31 -31 -31 -31 -31 -31 -31 -31 -31 -31 -30 -30 -29 -29 -29 -29 -28 -28 -28 -27 -27 -26 -24 -23 -22 -21 -21 -21 -20
-32 -32 -32 -32 -32 -32 -32 -32 -32 -32 -32 -31 -31 -31 -31 -31 -31 -31 -30 -30 -30 -30 -29 -29 -29 -29 -28 -28 -27 -27 -26 -25 -24 -23 -22 -22 -22 -21
-32 -33 -33 -34 -34 -34 -33 -33 -33 -33 -32 -32 -31 -31 -31 -31 -31 -31 -30 -30 -30 -30 -30 -30 -29 -29 -29 -28 -28 -28 -28 -27 -26 -25 -24 -24 -23 -23
-33 -34 -34 -34 -34 -34 -34 -34 -34 -34 -33 -33 -32 -31 -31 -31 -31 -31 -31 -30 -30 -30 -30 -30 -29 -29 -29 -28 -28 -28 -28 -28 -27 -26 -25 -24 -24 -24
-33 -33 -33 -34 -34 -34 -35 -35 -35 -35 -34 -33 -32 -31 -30 -30 -30 -30 -30 -30 -30 -30 -30 -30 -30 -29 -29 -29 -29 -28 -28 -27 -27 -27 -27 -26 -25 -24
-34 -34 -34 -34 -35 -35 -35 -35 -36 -35 -35 -33 -32 -32 -31 -31 -30 -30 -30 -30 -30 -30 -30 -29 -29 -29 -29 -29 -29 -29 -29 -28 -27 -27 -27 -27 -26 -25
-35 -35 -35 -35 -36 -36 -36 -36 -36 -35 -35 -33 -33 -32 -31 -30 -30 -30 -30 -30 -30 -30 -29 -29 -29 -29 -29 -29 -29 -29 -28 -28 -28 -28 -27 -27 -27 -26
-35 -36 -36 -36 -36 -36 -36 -35 -35 -35 -34 -33 -32 -31 -30 -30 -30 -30 -30 -30 -30 -30 -30 -29 -30 -29 -29 -29 -29 -29 -28 -28 -28 -28 -28 -28 -27 -26
-35 -35 -35 -36 -36 -36 -36 -35 -35 -34 -33 -32 -31 -31 -30 -30 -30 -30 -30 -30 -30 -30 -30 -30 -30 -30 -30 -30 -30 -30 -30 -29 -29 -28 -28 -27 -27 -27
-34 -35 -35 -35 -35 -35 -35 -35 -35 -34 -32 -32 -31 -31 -30 -30 -30 -30 -30 -30 -30 -30 -29 -29 -30 -30 -30 -31 -31 -31 -30 -30 -30 -30 -29 -28 -27 -27
-34 -34 -34 -34 -34 -34 -34 -34 -33 -33 -32 -31 -31 -30 -30 -30 -30 -29 -29 -29 -29 -29 -28 -29 -29 -30 -30 -31 -32 -31 -31 -31 -31 -30 -29 -29 -29 -29
-34 -34 -34 -34 -34 -33 -33 -32 -32 -32 -31 -31 -30 -30 -30 -30 -30 -29 -29 -29 -28 -28 -28 -28 -29 -29 -31 -33 -33 -33 -32 -32 -31 -31 -30 -30 -29 -29
-34 -34 -34 -34 -34 -33 -33 -32 -32 -32 -31 -30 -30 -30 -30 -30 -30 -29 -29 -29 -29 -29 -28 -28 -28 -29 -31 -33 -34 -34 -33 -32 -32 -31 -31 -31 -30 -29
-34 -33 -33 -33 -33 -33 -33 -32 -32 -32 -31 -31 -31 -30 -30 -30 -30 -30 -29 -29 -29 -29 -29 -29 -29 -29 -31 -33 -34 -33 -33 -32 -32 -31 -31 -31 -31 -30
-34 -34 -33 -33 -33 -33 -33 -32 -32 -32 -31 -31 -31 -30 -30 -30 -30 -30 -30 -30 -30 -29 -29 -29 -29 -29 -31 -33 -33 -33 -32 -32 -32 -32 -31 -31 -31 -30
-33 -34 -33 -33 -33 -33 -32 -32 -32 -32 -31 -31 -31 -31 -31 -30 -30 -30 -30 -30 -30 -30 -30 -30 -29 -30 -30 -31 -32 -33 -32 -32 -32 -32 -32 -32 -32 -32
-33 -33 -33 -33 -33 -33 -32 -32 -32 -32 -32 -31 -31 -31 -31 -31 -31 -31 -31 -31 -30 -30 -30 -30 -30 -30 -30 -30 -31 -32 -33 -33 -32 -32 -32 -32 -32 -32
-34 -33 -33 -33 -33 -33 -33 -32 -32 -32 -32 -32 -31 -31 -31 -31 -31 -31 -31 -31 -31 -31 -31 -31 -31 -31 -30 -30 -31 -31 -32 -32 -33 -33 -32 -32 -32 -32
-34 -34 -33 -33 -33 -33 -33 -33 -33 -32 -32 -32 -32 -32 -31 -31 -31 -31 -31 -31 -31 -31 -31 -31 -31 -31 -31 -31 -31 -31 -31 -32 -32 -32 -33 -33 -32 -32

GFSNE_500_temp_030.txt.gz
Temp
-29 -30 -30 -30 -30 -30 -31 -31 -31 -30 -31 -31 -31 -31 -30 -29 -29 -28 -27 -26 -25 -25 -25 -24 -24 -24 -24 -24 -23 -23 -22 -21 -20 -19 -19 -18 -18 -17
-31 -31 -31 -31 -31 -31 -31 -31 -31 -31 -31 -31 -32 -31 -32 -31 -31 -30 -29 -28 -27 -27 -27 -26 -25 -25 -24 -24 -24 -24 -23 -22 -21 -20 -20 -19 -19 -18
-31 -31 -32 -32 -31 -31 -31 -31 -31 -31 -31 -31 -31 -31 -31 -32 -32 -32 -31 -30 -29 -28 -27 -27 -26 -26 -25 -25 -25 -24 -23 -23 -23 -21 -21 -20 -20 -20
-32 -32 -32 -32 -32 -32 -32 -32 -31 -31 -31 -31 -31 -31 -31 -31 -32 -32 -32 -31 -31 -31 -30 -28 -28 -27 -27 -26 -25 -25 -25 -25 -23 -22 -22 -21 -21 -20
-32 -32 -32 -32 -32 -32 -32 -32 -32 -32 -32 -31 -31 -31 -31 -31 -31 -32 -32 -32 -31 -31 -31 -30 -29 -29 -28 -27 -27 -26 -26 -25 -24 -23 -23 -22 -21 -21
-32 -32 -32 -32 -33 -33 -33 -33 -33 -33 -33 -33 -32 -31 -31 -31 -31 -31 -31 -31 -31 -31 -31 -31 -31 -30 -30 -29 -29 -28 -27 -27 -26 -25 -24 -23 -22 -22
-33 -33 -33 -33 -34 -34 -34 -33 -33 -33 -34 -34 -34 -33 -32 -32 -31 -31 -31 -31 -31 -31 -31 -31 -31 -30 -30 -30 -29 -29 -28 -28 -28 -27 -25 -24 -23 -23
-33 -33 -34 -34 -34 -34 -34 -34 -34 -34 -34 -34 -35 -34 -33 -33 -32 -31 -31 -31 -31 -31 -31 -31 -31 -30 -30 -30 -30 -30 -29 -29 -28 -28 -27 -25 -24 -24
-34 -34 -34 -35 -35 -35 -35 -35 -35 -35 -35 -35 -35 -35 -34 -33 -32 -31 -30 -30 -31 -31 -31 -31 -31 -30 -30 -30 -30 -30 -29 -29 -29 -28 -28 -27 -27 -25
-34 -34 -35 -35 -36 -36 -36 -36 -36 -36 -35 -35 -35 -35 -34 -33 -32 -31 -30 -30 -30 -31 -31 -31 -31 -30 -30 -30 -30 -30 -29 -29 -29 -29 -28 -28 -28 -26
-35 -35 -35 -35 -35 -36 -36 -36 -36 -36 -36 -36 -36 -35 -34 -33 -31 -31 -30 -30 -30 -31 -31 -30 -30 -30 -30 -30 -30 -30 -30 -30 -29 -29 -28 -28 -28 -28
-34 -34 -35 -35 -35 -35 -36 -36 -36 -36 -36 -35 -35 -34 -33 -32 -31 -31 -30 -30 -30 -30 -30 -30 -30 -30 -30 -30 -30 -30 -29 -29 -29 -29 -29 -29 -28 -28
-34 -34 -34 -35 -35 -35 -35 -36 -36 -36 -35 -35 -34 -34 -33 -32 -31 -31 -30 -30 -30 -30 -30 -30 -30 -30 -30 -30 -30 -29 -29 -29 -29 -29 -29 -29 -29 -28
-34 -34 -34 -35 -35 -34 -35 -35 -35 -35 -34 -34 -33 -33 -32 -31 -31 -31 -31 -30 -30 -30 -30 -31 -31 -30 -30 -30 -30 -30 -30 -30 -29 -29 -29 -29 -29 -29
-34 -34 -34 -34 -34 -34 -34 -34 -34 -34 -33 -33 -32 -32 -31 -31 -31 -31 -31 -30 -30 -29 -29 -29 -29 -29 -29 -30 -30 -31 -31 -31 -30 -30 -30 -29 -29 -28
-34 -34 -34 -34 -34 -34 -34 -33 -33 -32 -32 -32 -32 -31 -32 -31 -31 -30 -30 -29 -29 -29 -28 -28 -29 -29 -28 -29 -30 -31 -32 -32 -32 -32 -31 -31 -30 -29
-34 -34 -34 -33 -33 -33 -33 -33 -33 -32 -32 -32 -32 -31 -31 -31 -30 -30 -30 -29 -29 -29 -29 -29 -29 -28 -28 -29 -31 -32 -33 -33 -33 -32 -32 -32 -31 -31
-34 -34 -33 -33 -33 -33 -33 -33 -32 -32 -32 -32 -31 -31 -31 -31 -30 -30 -30 -30 -29 -29 -29 -29 -29 -29 -29 -29 -31 -33 -34 -33 -33 -33 -32 -32 -31 -31
-33 -33 -34 -33 -33 -33 -33 -33 -32 -32 -32 -32 -31 -31 -31 -30 -30 -30 -30 -30 -30 -30 -30 -29 -29 -29 -29 -30 -30 -32 -33 -33 -32 -32 -32 -32 -32 -31
-34 -33 -33 -33 -33 -33 -33 -32 -32 -32 -32 -32 -31 -31 -31 -31 -31 -30 -30 -30 -30 -30 -30 -30 -30 -30 -30 -30 -30 -31 -32 -32 -32 -32 -32 -32 -32 -32
-34 -34 -33 -33 -33 -33 -33 -33 -32 -32 -32 -32 -31 -31 -31 -31 -31 -31 -31 -31 -31 -31 -31 -31 -31 -31 -30 -30 -30 -31 -31 -31 -32 -32 -32 -32 -32 -32
-34 -34 -34 -34 -33 -33 -33 -33 -33 -33 -32 -32 -32 -32 -31 -31 -31 -31 -31 -31 -31 -31 -31 -31 -31 -31 -31 -31 -31 -31 -31 -31 -31 -32 -32 -32 -32 -33
-34 -34 -34 -34 -34 -33 -33 -33 -33 -33 -33 -33 -32 -32 -32 -32 -31 -32 -31 -31 -31 -31 -31 -31 -31 -31 -31 -31 -31 -31 -31 -31 -31 -31 -31 -32 -32 -33

GFSNE_500_temp_033.txt.gz
Temp
-30 -31 -31 -31 -31 -31 -31 -31 -31 -31 -31 -31 -31 -32 -31 -31 -30 -29 -29 -28 -27 -26 -26 -26 -25 -24 -24 -24 -24 -23 -22 -22 -21 -20 -19 -18 -17 -17
-32 -32 -32 -32 -32 -32 -32 -32 -32 -32 -31 -32 -31 -32 -32 -32 -31 -31 -31 -30 -29 -28 -27 -27 -26 -26 -25 -24 -24 -24 -24 -23 -22 -21 -20 -19 -18 -17
-32 -32 -33 -33 -33 -33 -33 -32 -32 -32 -32 -32 -32 -32 -31 -31 -32 -32 -32 -31 -31 -31 -29 -29 -27 -26 -26 -25 -25 -25 -24 -24 -23 -22 -21 -20 -19 -18
-32 -33 -33 -33 -33 -33 -32 -32 -32 -32 -32 -32 -32 -32 -32 -32 -31 -32 -32 -32 -31 -31 -31 -30 -29 -28 -27 -26 -25 -25 -24 -24 -24 -23 -23 -21 -20 -19
-33 -33 -33 -33 -33 -33 -33 -32 -32 -32 -32 -32 -32 -32 -32 -32 -32 -31 -31 -32 -32 -31 -31 -31 -30 -29 -29 -27 -26 -26 -25 -24 -25 -25 -23 -22 -21 -21
-33 -33 -33 -33 -33 -33 -33 -34 -34 -33 -33 -34 -33 -33 -32 -33 -32 -32 -31 -31 -31 -32 -31 -31 -32 -31 -30 -29 -28 -27 -26 -26 -25 -25 -25 -23 -22 -22
-33 -33 -33 -33 -34 -34 -34 -35 -35 -35 -34 -34 -34 -34 -33 -33 -33 -33 -32 -32 -31 -31 -32 -31 -31 -32 -31 -31 -30 -29 -28 -27 -26 -26 -25 -25 -24 -23
-33 -33 -34 -34 -34 -35 -35 -35 -36 -36 -36 -35 -35 -34 -34 -34 -34 -33 -32 -32 -31 -31 -31 -31 -31 -31 -31 -31 -31 -30 -30 -29 -28 -27 -27 -26 -25 -24
-33 -34 -34 -34 -34 -35 -35 -35 -36 -36 -36 -36 -35 -35 -34 -35 -35 -34 -34 -32 -31 -32 -31 -31 -31 -31 -31 -31 -31 -31 -31 -30 -29 -29 -28 -27 -26 -25
-34 -34 -34 -34 -34 -35 -35 -35 -36 -36 -36 -37 -36 -35 -35 -35 -35 -35 -34 -33 -32 -32 -31 -30 -31 -31 -31 -31 -31 -31 -31 -30 -30 -30 -30 -29 -28 -27
-34 -34 -34 -34 -35 -35 -35 -35 -36 -36 -36 -37 -36 -36 -36 -36 -35 -35 -34 -33 -32 -31 -30 -30 -31 -31 -31 -31 -31 -31 -31 -31 -30 -30 -30 -29 -29 -29
-34 -34 -34 -34 -35 -35 -35 -35 -36 -36 -36 -36 -36 -36 -36 -36 -35 -34 -33 -32 -32 -31 -30 -30 -31 -31 -31 -31 -31 -31 -30 -30 -30 -30 -30 -30 -30 -29
-34 -34 -34 -34 -34 -35 -35 -35 -35 -36 -36 -35 -35 -35 -35 -35 -34 -34 -33 -32 -31 -31 -30 -30 -30 -31 -31 -31 -31 -30 -30 -30 -30 -30 -30 -30 -30 -30
-34 -34 -34 -34 -34 -34 -34 -34 -34 -35 -35 -35 -35 -34 -34 -34 -33 -33 -32 -31 -31 -30 -30 -30 -30 -30 -30 -30 -30 -30 -30 -30 -30 -30 -30 -30 -30 -30
-34 -34 -34 -34 -34 -34 -34 -34 -34 -33 -33 -34 -34 -33 -33 -33 -32 -32 -32 -31 -31 -31 -31 -31 -31 -31 -31 -31 -30 -30 -30 -30 -30 -30 -30 -29 -29 -30
-34 -34 -34 -34 -34 -34 -33 -33 -33 -33 -33 -32 -32 -32 -32 -32 -32 -32 -31 -31 -31 -30 -30 -30 -30 -30 -30 -30 -30 -29 -30 -31 -31 -31 -31 -31 -30 -30
-34 -34 -34 -34 -33 -33 -33 -33 -33 -33 -32 -32 -32 -32 -32 -32 -31 -31 -31 -30 -30 -29 -29 -29 -29 -29 -29 -29 -29 -30 -31 -32 -33 -33 -33 -32 -32 -31
-34 -34 -34 -34 -34 -33 -33 -33 -33 -33 -32 -32 -32 -32 -32 -31 -31 -31 -30 -30 -30 -30 -30 -29 -29 -29 -29 -29 -29 -30 -31 -33 -33 -34 -33 -33 -33 -32
-34 -34 -34 -34 -34 -34 -33 -33 -33 -32 -32 -32 -32 -32 -31 -31 -31 -31 -30 -30 -30 -30 -30 -30 -30 -30 -30 -29 -29 -30 -31 -32 -33 -33 -33 -33 -33 -32
-34 -34 -34 -34 -34 -34 -34 -33 -33 -32 -32 -32 -32 -32 -32 -31 -31 -31 -31 -30 -30 -30 -30 -30 -30 -30 -30 -30 -30 -30 -30 -31 -32 -33 -32 -32 -32 -32
-34 -34 -34 -34 -34 -34 -34 -34 -33 -33 -33 -32 -32 -32 -32 -31 -31 -31 -31 -31 -31 -31 -31 -31 -31 -31 -30 -30 -31 -30 -30 -31 -31 -32 -32 -32 -32 -32
-35 -35 -35 -34 -34 -34 -34 -34 -34 -34 -33 -33 -33 -32 -32 -32 -32 -31 -31 -31 -31 -31 -31 -31 -31 -31 -31 -31 -31 -31 -31 -31 -31 -31 -31 -32 -32 -32
-35 -35 -35 -35 -35 -34 -34 -34 -34 -34 -34 -34 -33 -33 -33 -32 -32 -32 -32 -32 -32 -32 -31 -31 -31 -31 -31 -31 -31 -31 -31 -31 -31 -31 -31 -31 -32 -32

GFSNE_500_temp_036.txt.gz
Temp
-31 -32 -32 -32 -32 -32 -32 -33 -32 -32 -32 -32 -32 -32 -31 -32 -32 -32 -31 -31 -30 -28 -27 -26 -25 -25 -25 -24 -24 -23 -23 -23 -22 -21 -20 -18 -18 -17
-32 -32 -32 -33 -33 -33 -33 -33 -33 -32 -32 -32 -33 -32 -32 -32 -32 -32 -32 -32 -31 -31 -29 -28 -27 -26 -26 -25 -25 -24 -24 -24 -23 -22 -21 -20 -18 -18
-33 -33 -33 -33 -33 -33 -33 -33 -33 -33 -32 -32 -32 -32 -32 -32 -32 -32 -32 -32 -32 -32 -31 -30 -29 -28 -26 -26 -25 -24 -24 -24 -23 -23 -23 -22 -20 -19
-33 -33 -33 -33 -33 -33 -33 -33 -33 -33 -33 -32 -32 -32 -32 -32 -32 -32 -32 -32 -32 -32 -32 -32 -31 -30 -28 -27 -26 -25 -25 -24 -24 -24 -23 -23 -22 -21
-33 -33 -33 -33 -33 -33 -33 -33 -33 -34 -34 -34 -33 -33 -33 -33 -32 -32 -32 -32 -32 -32 -31 -32 -32 -31 -30 -29 -28 -27 -26 -25 -25 -24 -24 -23 -23 -22
-33 -33 -33 -33 -33 -33 -33 -34 -34 -35 -35 -35 -35 -35 -34 -34 -33 -33 -32 -32 -32 -32 -32 -31 -31 -32 -31 -30 -30 -28 -28 -26 -25 -25 -25 -24 -24 -23
-33 -33 -33 -33 -33 -34 -34 -34 -34 -35 -35 -35 -35 -35 -36 -35 -34 -34 -33 -33 -32 -32 -32 -32 -31 -31 -31 -31 -31 -30 -29 -28 -27 -26 -26 -25 -25 -24
-33 -33 -33 -33 -34 -34 -34 -34 -35 -35 -35 -35 -35 -36 -36 -36 -35 -34 -34 -33 -33 -33 -32 -31 -31 -31 -31 -31 -31 -31 -30 -29 -28 -28 -26 -26 -25 -25
-33 -33 -33 -33 -34 -34 -34 -35 -35 -35 -35 -36 -36 -37 -37 -37 -36 -35 -34 -34 -34 -34 -33 -32 -31 -31 -31 -31 -31 -31 -31 -30 -30 -28 -27 -26 -26 -25
-33 -33 -33 -34 -34 -34 -34 -35 -35 -35 -36 -36 -37 -37 -37 -37 -36 -36 -35 -34 -34 -34 -33 -32 -31 -31 -31 -30 -31 -31 -31 -31 -31 -30 -29 -28 -27 -26
-33 -33 -33 -34 -34 -34 -34 -34 -35 -35 -36 -37 -37 -37 -37 -37 -36 -36 -35 -35 -34 -34 -34 -32 -32 -31 -30 -30 -31 -31 -31 -31 -31 -31 -31 -29 -29 -28
-33 -33 -34 -34 -34 -34 -34 -34 -34 -35 -36 -36 -36 -36 -36 -36 -36 -36 -35 -35 -35 -34 -33 -32 -31 -30 -30 -30 -30 -31 -31 -31 -31 -31 -31 -31 -30 -29
-33 -34 -34 -34 -34 -34 -34 -34 -34 -34 -35 -35 -35 -35 -36 -36 -36 -36 -35 -35 -35 -34 -32 -32 -31 -31 -30 -30 -30 -31 -31 -31 -31 -31 -31 -31 -31 -31
-33 -33 -34 -34 -34 -34 -34 -34 -34 -34 -34 -34 -35 -35 -35 -35 -35 -35 -34 -34 -33 -32 -32 -31 -31 -30 -30 -30 -30 -31 -31 -31 -31 -31 -31 -31 -31 -31
-33 -33 -33 -34 -34 -34 -34 -33 -33 -33 -33 -33 -33 -34 -34 -34 -34 -34 -33 -33 -32 -32 -31 -31 -31 -31 -31 -31 -31 -31 -31 -31 -31 -30 -30 -31 -31 -31
-33 -33 -33 -34 -34 -34 -33 -33 -33 -33 -33 -33 -33 -33 -33 -33 -33 -33 -33 -32 -32 -32 -32 -31 -31 -31 -31 -31 -31 -31 -31 -31 -31 -30 -30 -30 -30 -30
-34 -34 -33 -34 -34 -34 -34 -33 -33 -33 -33 -33 -32 -33 -33 -33 -32 -32 -32 -32 -31 -31 -31 -30 -30 -30 -30 -30 -30 -30 -30 -30 -30 -31 -31 -31 -31 -31
-34 -34 -34 -34 -34 -34 -34 -33 -33 -33 -33 -33 -32 -32 -32 -32 -32 -32 -31 -31 -30 -30 -30 -30 -30 -30 -29 -29 -29 -30 -30 -30 -31 -32 -33 -33 -33 -32
-34 -34 -34 -34 -34 -34 -34 -34 -33 -33 -33 -33 -32 -32 -32 -32 -32 -32 -31 -31 -31 -30 -30 -30 -30 -30 -30 -30 -30 -30 -30 -30 -31 -32 -33 -33 -33 -33
-35 -34 -34 -34 -34 -34 -34 -34 -34 -34 -33 -33 -33 -32 -32 -32 -32 -32 -31 -31 -31 -31 -31 -30 -30 -30 -30 -30 -30 -30 -30 -30 -31 -31 -32 -33 -33 -33
-35 -35 -35 -35 -35 -34 -34 -34 -34 -34 -34 -33 -33 -33 -32 -32 -32 -32 -32 -31 -31 -31 -31 -31 -31 -31 -31 -31 -31 -31 -30 -31 -31 -31 -31 -32 -32 -32
-35 -35 -36 -35 -35 -35 -35 -34 -34 -34 -34 -34 -34 -33 -33 -33 -32 -32 -32 -32 -32 -31 -31 -31 -31 -31 -31 -31 -31 -31 -31 -31 -31 -31 -31 -31 -31 -32
-36 -36 -36 -36 -36 -36 -35 -35 -35 -35 -35 -34 -34 -34 -34 -33 -33 -33 -33 -33 -32 -32 -32 -32 -32 -32 -32 -32 -31 -31 -32 -31 -31 -31 -31 -31 -31 -31

GFSNE_500_temp_039.txt.gz
Temp
-27 -28 -29 -32 -33 -33 -33 -33 -33 -32 -32 -32 -32 -32 -32 -32 -32 -32 -32 -31 -31 -31 -30 -29 -27 -26 -25 -25 -24 -24 -23 -23 -22 -22 -21 -20 -18 -17
-28 -29 -32 -33 -33 -33 -33 -33 -33 -32 -31 -32 -32 -32 -32 -32 -32 -32 -32 -32 -32 -31 -31 -30 -29 -28 -26 -25 -25 -25 -24 -23 -23 -23 -22 -21 -20 -19
-30 -31 -32 -33 -33 -33 -33 -33 -33 -33 -32 -32 -32 -32 -32 -32 -32 -32 -32 -32 -32 -32 -32 -31 -31 -29 -28 -27 -26 -25 -25 -24 -23 -23 -23 -22 -22 -20
-31 -31 -32 -33 -33 -33 -33 -33 -33 -33 -33 -32 -33 -33 -33 -33 -32 -32 -32 -32 -32 -32 -32 -32 -31 -31 -30 -29 -27 -26 -25 -25 -23 -23 -23 -24 -23 -22
-32 -32 -33 -33 -33 -33 -33 -33 -33 -34 -34 -34 -34 -34 -34 -35 -34 -33 -33 -33 -32 -32 -32 -32 -32 -32 -31 -31 -30 -28 -27 -26 -25 -24 -23 -24 -24 -23
-32 -32 -33 -33 -33 -33 -33 -33 -34 -34 -34 -34 -34 -35 -35 -35 -35 -35 -35 -34 -33 -33 -32 -32 -32 -32 -31 -31 -31 -30 -29 -27 -26 -25 -24 -25 -24 -24
-32 -33 -33 -33 -32 -33 -33 -34 -34 -34 -34 -35 -35 -35 -35 -35 -35 -35 -35 -35 -34 -34 -33 -32 -32 -32 -32 -31 -32 -31 -30 -29 -28 -26 -25 -25 -24 -24
-33 -33 -33 -32 -33 -33 -34 -34 -34 -34 -34 -35 -35 -35 -36 -36 -36 -36 -36 -36 -35 -35 -34 -33 -32 -32 -32 -31 -31 -31 -31 -30 -29 -28 -26 -25 -24 -25
-33 -33 -33 -33 -33 -33 -34 -34 -34 -34 -34 -35 -35 -36 -37 -37 -37 -37 -36 -36 -36 -35 -34 -33 -33 -32 -32 -32 -31 -31 -31 -31 -30 -30 -28 -26 -26 -25
-33 -33 -33 -33 -33 -33 -34 -34 -34 -34 -34 -35 -35 -36 -37 -37 -37 -37 -37 -37 -36 -35 -34 -34 -33 -33 -32 -31 -31 -31 -31 -31 -31 -30 -30 -28 -27 -26
-33 -33 -33 -33 -33 -34 -34 -34 -34 -34 -34 -34 -35 -36 -36 -37 -37 -37 -37 -36 -36 -35 -34 -34 -34 -33 -32 -31 -31 -31 -31 -31 -31 -31 -30 -30 -29 -28
-33 -33 -33 -33 -33 -33 -34 -34 -34 -34 -34 -34 -35 -35 -36 -36 -37 -37 -36 -36 -36 -35 -34 -34 -34 -33 -32 -31 -31 -31 -31 -31 -31 -31 -31 -30 -29 -29
-33 -33 -33 -33 -33 -33 -34 -33 -33 -33 -33 -33 -34 -34 -35 -35 -36 -36 -36 -36 -36 -35 -34 -34 -34 -33 -32 -31 -30 -31 -31 -31 -31 -31 -31 -31 -31 -30
-33 -33 -33 -33 -33 -33 -34 -33 -33 -33 -33 -33 -33 -34 -34 -35 -35 -35 -36 -36 -35 -35 -34 -34 -34 -33 -32 -31 -30 -30 -30 -31 -31 -31 -31 -31 -31 -31
-33 -33 -33 -33 -33 -33 -33 -34 -33 -33 -33 -33 -33 -33 -34 -34 -34 -34 -34 -34 -34 -34 -34 -33 -33 -32 -31 -30 -30 -30 -30 -30 -31 -31 -31 -31 -31 -31
-34 -33 -33 -34 -33 -34 -34 -34 -34 -33 -33 -33 -33 -33 -33 -33 -34 -34 -34 -34 -34 -33 -33 -33 -32 -31 -31 -31 -30 -30 -30 -30 -31 -31 -31 -31 -31 -31
-34 -34 -34 -34 -34 -33 -34 -34 -34 -33 -33 -33 -33 -33 -33 -33 -33 -33 -33 -33 -33 -33 -32 -32 -32 -31 -31 -31 -31 -31 -31 -31 -31 -31 -31 -31 -31 -31
-35 -35 -34 -34 -34 -34 -34 -34 -34 -33 -33 -33 -33 -33 -33 -33 -33 -33 -33 -33 -33 -32 -32 -32 -31 -31 -31 -30 -31 -30 -30 -30 -30 -31 -31 -31 -31 -31
-35 -35 -35 -35 -34 -34 -34 -34 -34 -34 -33 -33 -33 -33 -33 -32 -32 -32 -32 -32 -32 -31 -31 -31 -31 -30 -30 -30 -30 -30 -30 -30 -30 -31 -32 -32 -33 -33
-35 -35 -35 -35 -35 -35 -35 -34 -34 -34 -34 -34 -33 -33 -33 -32 -32 -32 -32 -32 -32 -31 -31 -31 -31 -30 -30 -30 -30 -30 -30 -30 -30 -30 -31 -32 -32 -33
-36 -36 -36 -36 -36 -36 -35 -35 -35 -34 -34 -34 -34 -33 -33 -33 -32 -32 -32 -32 -32 -31 -31 -31 -31 -31 -31 -31 -31 -30 -30 -30 -30 -30 -30 -31 -32 -32
-36 -36 -36 -36 -36 -36 -36 -36 -35 -35 -35 -34 -34 -34 -33 -33 -33 -33 -32 -32 -32 -32 -32 -31 -31 -31 -31 -31 -31 -31 -31 -31 -31 -31 -31 -31 -31 -31
-36 -36 -36 -36 -36 -36 -36 -36 -36 -36 -35 -35 -35 -34 -34 -34 -33 -33 -33 -33 -32 -32 -32 -32 -32 -32 -32 -32 -32 -31 -31 -31 -31 -31 -31 -31 -31 -31

GFSNE_500_temp_042.txt.gz
Temp
-24 -26 -29 -29 -30 -30 -31 -31 -31 -31 -31 -32 -32 -32 -32 -32 -31 -31 -31 -32 -31 -31 -31 -31 -30 -29 -27 -25 -24 -23 -22 -22 -22 -21 -21 -20 -18 -17
-27 -29 -30 -30 -30 -31 -31 -32 -32 -32 -31 -32 -32 -32 -32 -32 -32 -31 -32 -32 -32 -32 -32 -31 -31 -30 -29 -28 -26 -25 -23 -23 -23 -23 -21 -21 -21 -19
-30 -31 -31 -31 -31 -32 -32 -32 -32 -32 -32 -32 -32 -32 -32 -32 -32 -32 -32 -32 -32 -32 -32 -32 -31 -31 -30 -29 -29 -27 -26 -24 -24 -24 -23 -22 -22 -22
-31 -31 -31 -31 -32 -32 -32 -32 -32 -32 -32 -32 -33 -33 -34 -34 -34 -34 -34 -34 -33 -32 -32 -32 -32 -31 -31 -31 -30 -29 -27 -26 -25 -24 -23 -23 -22 -23
-32 -32 -32 -32 -32 -32 -32 -32 -33 -33 -33 -33 -34 -34 -34 -34 -34 -34 -34 -34 -34 -34 -33 -33 -32 -32 -32 -31 -31 -30 -29 -27 -26 -25 -23 -24 -24 -23
-32 -32 -32 -32 -32 -32 -32 -33 -33 -33 -34 -34 -34 -34 -34 -35 -35 -35 -34 -35 -35 -35 -34 -33 -32 -32 -32 -32 -32 -31 -30 -30 -29 -26 -25 -24 -24 -23
-32 -32 -32 -32 -33 -32 -32 -33 -33 -33 -34 -34 -34 -34 -34 -35 -35 -35 -35 -35 -35 -35 -35 -35 -33 -32 -32 -32 -32 -32 -32 -31 -30 -28 -26 -25 -25 -24
-33 -33 -33 -33 -32 -32 -33 -33 -33 -33 -34 -34 -34 -34 -34 -35 -36 -36 -36 -36 -36 -36 -35 -35 -34 -33 -32 -32 -32 -32 -32 -32 -30 -30 -29 -26 -25 -24
-33 -33 -33 -33 -32 -32 -33 -33 -33 -34 -34 -34 -34 -34 -34 -35 -36 -36 -37 -37 -36 -36 -36 -36 -35 -34 -33 -32 -32 -32 -32 -32 -32 -30 -30 -29 -27 -25
-33 -33 -33 -32 -32 -33 -33 -33 -34 -34 -34 -34 -34 -34 -35 -35 -36 -36 -37 -37 -37 -37 -37 -36 -36 -34 -33 -32 -32 -32 -32 -32 -32 -32 -31 -30 -29 -26
-33 -33 -33 -32 -32 -33 -33 -33 -34 -33 -33 -33 -33 -34 -34 -35 -36 -36 -37 -37 -37 -37 -37 -36 -36 -35 -34 -32 -32 -32 -32 -32 -31 -32 -31 -31 -29 -28
-34 -33 -33 -33 -33 -33 -33 -33 -34 -33 -33 -33 -33 -33 -34 -35 -36 -36 -37 -37 -37 -37 -36 -36 -35 -34 -34 -33 -32 -32 -32 -31 -31 -31 -31 -31 -31 -29
-34 -34 -33 -33 -33 -33 -33 -33 -33 -33 -33 -33 -33 -33 -34 -34 -35 -36 -36 -36 -36 -36 -36 -36 -35 -34 -34 -33 -33 -32 -31 -31 -31 -31 -31 -31 -31 -31
-34 -34 -33 -33 -33 -33 -33 -33 -33 -33 -33 -33 -33 -33 -34 -34 -35 -35 -36 -36 -36 -36 -36 -35 -35 -34 -34 -33 -33 -32 -31 -31 -31 -31 -31 -31 -31 -31
-34 -34 -34 -33 -33 -33 -33 -33 -34 -34 -33 -33 -33 -33 -33 -34 -34 -35 -35 -36 -36 -36 -35 -35 -35 -34 -34 -33 -33 -32 -32 -31 -31 -31 -31 -31 -31 -31
-35 -34 -34 -34 -34 -34 -34 -34 -34 -34 -34 -33 -33 -33 -33 -33 -34 -34 -34 -35 -35 -35 -35 -35 -34 -34 -34 -33 -33 -32 -31 -31 -30 -30 -31 -31 -31 -31
-35 -35 -35 -34 -34 -34 -34 -34 -34 -34 -34 -33 -33 -33 -33 -33 -33 -34 -34 -34 -34 -35 -35 -34 -34 -34 -33 -33 -32 -32 -31 -31 -31 -30 -30 -30 -31 -31
-35 -35 -35 -35 -35 -35 -34 -34 -34 -34 -34 -34 -33 -33 -33 -33 -33 -33 -33 -34 -34 -34 -34 -33 -33 -33 -33 -32 -32 -31 -31 -31 -31 -31 -31 -31 -31 -31
-35 -35 -35 -35 -35 -35 -35 -35 -35 -34 -34 -34 -33 -33 -33 -33 -33 -33 -33 -33 -33 -33 -33 -33 -33 -32 -32 -32 -32 -31 -31 -31 -31 -31 -31 -31 -31 -31
-35 -35 -35 -35 -35 -35 -36 -35 -35 -35 -34 -34 -34 -34 -33 -33 -33 -33 -33 -33 -33 -33 -33 -32 -32 -32 -32 -32 -32 -31 -31 -31 -31 -31 -31 -31 -31 -32
-35 -35 -35 -35 -36 -36 -36 -36 -36 -36 -35 -35 -34 -34 -34 -33 -33 -33 -33 -32 -32 -32 -32 -32 -32 -31 -31 -31 -31 -31 -30 -30 -31 -31 -31 -31 -32 -32
-35 -35 -35 -36 -36 -36 -36 -36 -36 -36 -36 -35 -35 -35 -34 -34 -33 -33 -33 -33 -32 -32 -32 -32 -32 -32 -31 -31 -31 -31 -31 -30 -30 -30 -30 -31 -31 -31
-35 -35 -35 -36 -36 -36 -36 -36 -36 -36 -36 -36 -36 -35 -35 -35 -34 -34 -33 -33 -33 -32 -32 -32 -32 -32 -32 -32 -31 -31 -31 -31 -31 -31 -31 -31 -31 -31

GFSNE_500_temp_045.txt.gz
Temp
-23 -24 -25 -27 -28 -29 -30 -31 -31 -30 -30 -31 -31 -32 -32 -32 -32 -31 -31 -31 -31 -31 -31 -31 -30 -29 -28 -27 -26 -25 -24 -23 -22 -21 -20 -20 -20 -17
-24 -26 -27 -29 -30 -31 -31 -31 -31 -31 -30 -31 -31 -31 -31 -31 -32 -32 -32 -31 -31 -31 -31 -31 -31 -31 -30 -29 -28 -27 -26 -25 -24 -23 -22 -21 -21 -20
-26 -28 -29 -31 -31 -32 -32 -32 -32 -32 -31 -31 -31 -32 -32 -32 -32 -33 -33 -33 -32 -32 -32 -31 -31 -31 -31 -31 -30 -29 -28 -27 -25 -24 -23 -23 -22 -22
-28 -29 -31 -32 -32 -32 -32 -32 -32 -32 -32 -31 -32 -32 -33 -33 -33 -33 -33 -33 -33 -33 -33 -32 -31 -31 -32 -31 -31 -30 -30 -29 -28 -25 -25 -23 -23 -22
-29 -31 -32 -32 -32 -32 -32 -32 -32 -32 -32 -32 -32 -33 -33 -34 -34 -34 -34 -34 -34 -34 -34 -34 -33 -32 -31 -32 -32 -31 -31 -30 -29 -28 -26 -25 -24 -24
-31 -32 -33 -33 -33 -33 -32 -32 -32 -32 -32 -32 -33 -33 -33 -34 -34 -33 -33 -34 -34 -35 -34 -34 -34 -34 -33 -32 -32 -32 -31 -31 -30 -29 -28 -26 -25 -23
-32 -33 -33 -33 -33 -33 -32 -32 -32 -32 -32 -33 -33 -33 -34 -33 -33 -33 -34 -34 -35 -35 -35 -35 -35 -34 -34 -33 -32 -32 -32 -31 -31 -30 -29 -27 -25 -23
-33 -33 -33 -33 -33 -32 -32 -32 -32 -32 -33 -33 -33 -33 -33 -33 -33 -34 -34 -35 -35 -36 -36 -36 -35 -35 -35 -34 -32 -32 -32 -32 -32 -31 -30 -28 -26 -24
-33 -33 -33 -33 -33 -33 -32 -32 -32 -33 -33 -33 -33 -33 -33 -33 -33 -34 -35 -35 -36 -37 -37 -37 -36 -35 -35 -35 -33 -32 -32 -32 -32 -32 -31 -30 -28 -26
-33 -33 -33 -33 -33 -33 -32 -33 -33 -33 -33 -34 -33 -33 -33 -33 -34 -34 -35 -36 -37 -37 -37 -37 -37 -36 -36 -35 -34 -33 -32 -32 -32 -32 -31 -30 -29 -28
-33 -33 -33 -33 -33 -33 -33 -33 -33 -33 -33 -33 -33 -33 -33 -33 -34 -34 -35 -36 -37 -37 -38 -37 -37 -36 -36 -35 -35 -33 -32 -32 -32 -32 -32 -30 -29 -29
-33 -33 -34 -34 -33 -33 -33 -33 -33 -33 -34 -33 -33 -33 -33 -33 -34 -34 -35 -36 -37 -37 -37 -37 -37 -37 -36 -36 -35 -34 -33 -32 -32 -32 -32 -32 -30 -30
-34 -34 -34 -34 -34 -33 -33 -33 -33 -33 -34 -33 -33 -33 -33 -33 -34 -35 -35 -36 -36 -37 -37 -37 -37 -37 -36 -36 -35 -34 -33 -32 -32 -32 -32 -32 -32 -31
-34 -34 -34 -34 -34 -34 -33 -33 -33 -33 -34 -34 -33 -33 -33 -33 -34 -34 -35 -36 -36 -36 -36 -36 -36 -36 -36 -35 -35 -34 -33 -32 -32 -32 -32 -31 -31 -31
-34 -34 -34 -34 -34 -34 -34 -34 -34 -33 -34 -34 -34 -33 -33 -33 -34 -34 -35 -35 -36 -36 -36 -36 -36 -35 -35 -35 -34 -34 -33 -33 -32 -31 -31 -31 -31 -31
-34 -34 -35 -35 -35 -35 -35 -34 -34 -34 -34 -34 -34 -34 -33 -33 -34 -34 -34 -35 -35 -36 -36 -36 -35 -35 -35 -34 -34 -34 -33 -33 -32 -31 -31 -31 -31 -31
-34 -35 -35 -35 -35 -35 -35 -35 -34 -34 -34 -34 -34 -34 -34 -33 -33 -34 -34 -34 -35 -35 -35 -36 -36 -35 -35 -35 -34 -34 -33 -33 -32 -31 -31 -31 -31 -31
-35 -35 -35 -35 -35 -35 -35 -35 -35 -35 -34 -34 -34 -34 -34 -34 -33 -33 -34 -34 -34 -34 -34 -35 -35 -35 -35 -35 -34 -34 -33 -32 -31 -31 -31 -31 -31 -31
-35 -35 -35 -35 -35 -35 -35 -35 -35 -35 -35 -35 -34 -34 -34 -34 -34 -33 -33 -33 -34 -34 -34 -34 -34 -34 -34 -34 -33 -33 -33 -32 -32 -31 -31 -31 -31 -31
-35 -35 -35 -35 -35 -35 -35 -36 -36 -36 -36 -35 -35 -35 -34 -34 -34 -33 -33 -33 -33 -33 -33 -34 -34 -34 -34 -33 -33 -33 -32 -32 -32 -31 -31 -31 -31 -31
-35 -35 -35 -35 -35 -35 -36 -36 -36 -36 -36 -36 -36 -35 -35 -34 -34 -34 -33 -33 -33 -33 -33 -33 -33 -33 -33 -33 -33 -33 -33 -32 -32 -32 -32 -32 -32 -31
-35 -35 -35 -35 -35 -35 -36 -36 -36 -36 -36 -36 -36 -36 -36 -35 -35 -34 -34 -34 -33 -33 -33 -33 -33 -33 -33 -33 -32 -32 -32 -32 -32 -32 -32 -31 -31 -31
-35 -35 -35 -35 -35 -35 -36 -36 -36 -36 -36 -36 -36 -36 -36 -36 -35 -35 -35 -34 -34 -33 -33 -33 -33 -32 -32 -32 -32 -32 -32 -31 -31 -31 -31 -31 -31 -31